Regional Weather Roundup
Issued by NWS

Home | Current Version | Previous Version | Graphics & Text | Print | Product List | Glossary Off
Versions: 1 2 3 4 5 6 7 8 9 10 11 12 13 14 15 16 17 18 19 20 21 22 23 24 25 26 27 28 29 30 31 32 33 34 35 36 37 38 39 40 41 42 43 44 45 46 47 48 49 50

000
ASUS43 KDMX 282208
RWRIA

WEATHER ROUNDUP FOR IOWA
NATIONAL WEATHER SERVICE DES MOINES IA
500 PM CDT WED SEP 28 2016

NOTE: "FAIR" INDICATES FEW OR NO CLOUDS BELOW 12,000 FEET WITH NO
SIGNIFICANT WEATHER AND/OR OBSTRUCTIONS TO VISIBILITY.

* - THESE STATIONS ARE NOT NWS STATIONS...THUS NOT UNDER NWS
QUALITY CONTROL.  THEY ALSO DO NOT REPORT WEATHER SUCH
AS PRECIPITATION OR FOG.

IAZ001>003-012>014-020>022-031>034-043>046-282300-
   NORTHWEST IOWA

CITY           SKY/WX    TMP DP  RH WIND       PRES   REMARKS
CARROLL *      MOSUNNY   63  48  59 NE17G24   30.22R
CHEROKEE *     CLOUDY    61  49  63 NE10      30.25S
DENISON *      CLOUDY    63  46  55 N12G20    30.21R
LE MARS *      MOSUNNY   63  46  55 N13       30.27R
ORANGE CITY *  MOSUNNY   61  46  59 N6        30.27R
SHELDON *      CLOUDY    59  46  63 N10       30.26R
SIOUX CITY     SUNNY     65  47  52 NE13      30.25R
SPENCER        CLOUDY    62  47  57 NE15      30.25R
STORM LAKE *   SUNNY     63  46  55 N9G16     30.24R
$$

IAZ055>058-069>071-079>083-090>094-282300-
   SOUTHWEST IOWA

CITY           SKY/WX    TMP DP  RH WIND       PRES   REMARKS
ATLANTIC *     PTSUNNY   64  48  55 N14G21    30.20R
AUDUBON *      PTSUNNY   64  48  55 N12G17    30.22R
CLARINDA *       N/A     66  46  48 MISG      30.21R
COUNCIL BLFS * SUNNY     63  46  55 N12       30.23R
CRESTON *      CLOUDY    61  48  63 NE12G18   30.21R
HARLAN  *      PTSUNNY   64  48  55 N15       30.25R
LAMONI         CLOUDY    60  48  64 N14       30.19R
RED OAK *      MOSUNNY   64  48  55 NE14G20   30.21R
SHENANDOAH *   SUNNY     66  46  48 N14G22    30.21R
$$

IAZ047>049-059>061-072>074-084-282300-
   CENTRAL IOWA

CITY           SKY/WX    TMP DP  RH WIND       PRES   REMARKS
AMES           CLOUDY    60  50  69 N20       30.19R
ANKENY *         N/A    N/A N/A N/A MISG        N/A
BOONE *        CLOUDY    59  48  67 N14G24    30.19R
CHARITON *       N/A     59  48  67 NW13G21   30.17R
DES MOINES     CLOUDY    61  49  64 N10       30.19R
GRINNELL*      CLOUDY    61  48  63 N9        30.17R
KNOXVILLE *    CLOUDY    61  48  63 NW13      30.15R
MARSHALLTOWN   CLOUDY    61  50  67 N10       30.16R
NEWTON *       CLOUDY    61  48  63 N8G16     30.16R
PELLA *        CLOUDY    60  48  65 NW12      30.17R
PERRY *        CLOUDY    62  49  63 N12G18    30.21R
$$

IAZ004>006-015-016-023>025-035-036-282300-
   NORTH CENTRAL IOWA

CITY           SKY/WX    TMP DP  RH WIND       PRES   REMARKS
ALGONA *       CLOUDY    61  48  63 N10G18    30.24R
CLARION *      SUNNY     63  48  59 N13G20    30.20S
ESTHERVILLE    CLOUDY    60  47  61 NE16G24   30.25R
FORT DODGE *   CLOUDY    57  46  67 N7        30.23S
MASON CITY     CLOUDY    63  48  58 N17       30.21R
FOREST CITY *  CLOUDY    61  46  59 N9        30.21R
WEBSTER CITY * CLOUDY    61  48  63 N15G22    30.19R
IOWA FALLS *   CLOUDY    63  49  58 N12G18    30.19R
$$

IAZ007>011-017>019-026>030-037>042-050>054-066-282300-
   NORTHEAST IOWA

CITY           SKY/WX    TMP DP  RH WIND       PRES   REMARKS
CEDAR RAPIDS   MOSUNNY   64  49  57 N16       30.12R
CHARLES CITY * PTSUNNY   61  48  63 NE7G16    30.18R
CLINTON *      CLOUDY    61  49  64 N17       30.09R
DECORAH *      CLOUDY    59  52  77 NE7G13    30.16R
DUBUQUE        CLOUDY    60  50  69 N12       30.10R
MONTICELLO *   SUNNY     64  48  55 N12G20    30.11R
OELWEIN *      PTSUNNY   61  50  67 N13G20    30.16R
WATERLOO       CLOUDY    62  50  64 N10       30.14R
$$

IAZ064-065-067-068-078-282300-
   EAST CENTRAL IOWA

CITY           SKY/WX    TMP DP  RH WIND       PRES   REMARKS
DAVENPORT      PTSUNNY   63  47  55 N15G24    30.09R
IOWA CITY      CLOUDY    64  48  56 N15       30.13R
MT. PLEASANT * CLOUDY    65  48  52 N16G23    30.10R
MUSCATINE *    CLOUDY    64  46  52 N18       30.10R
QUAD CITIES    CLOUDY    63  47  55 NW10      30.07R
$$

IAZ062-063-075>077-085>089-095>099-282300-
   SOUTHEAST IOWA

CITY           SKY/WX    TMP DP  RH WIND       PRES   REMARKS
BURLINGTON     CLOUDY    62  49  62 NW13G21   30.08R
FAIRFIELD *    CLOUDY    63  46  55 N16       30.11R
FORT MADISON *   N/A     63  48  59 N9G18     30.10R
KEOKUK *       CLOUDY    63  48  59 NW12G18   30.09R
OSKALOOSA *    CLOUDY    61  47  60 N14       30.14R
OTTUMWA        CLOUDY    63  47  55 N16       30.14R
WASHINGTON *     N/A    N/A N/A N/A MISG        N/A
$$

ABBREVIATIONS USED IN REMARKS
   TC - TEMPERATURES IN CELSIUS
  WCI - WIND CHILL INDEX
   HX - HEAT INDEX
  VSB - VISIBILITY
$$





USA.gov is the U.S. government's official web portal to all federal, state and local government web resources and services.